CW9792 Weather Reports


Display with metric or nautical units.
time (UTC)temp
F
wind
direction
speed
MPH
gust
MPH
rain 1hr
in
rain 24hr
in
rain mn
in
humidity
%
barometer
mb
20260902143530 87 255 0.0 0.0 0.00 0.00 0.00 50 1018.3
20260902143030 87 255 0.0 0.0 0.00 0.00 0.00 53 1018.3
20260902142529 86 243 0.0 0.0 0.00 0.00 0.00 52 1018.3
20260902142028 86 273 0.0 0.0 0.00 0.00 0.00 53 1018.3
20260902141534 86 254 0.0 0.0 0.00 0.00 0.00 53 1018.3
20260902141026 86 221 0.0 0.0 0.00 0.00 0.00 54 1018.2
20260902140525 85 227 0.0 0.0 0.00 0.00 0.00 54 1018.2
20260902140024 85 217 0.0 0.0 0.00 0.00 0.00 55 1018.2
20260902135523 85 221 0.0 0.0 0.00 0.00 0.00 56 1018.3
20260902135022 84 240 0.0 0.0 0.00 0.00 0.00 56 1018.3
20260902134522 84 209 0.0 0.0 0.00 0.00 0.00 58 1018.3
20260902134019 83 211 0.0 0.0 0.00 0.00 0.00 58 1018.4
20260902133520 82 211 0.0 0.0 0.00 0.00 0.00 59 1018.4
20260902133017 81 208 0.0 0.0 0.00 0.00 0.00 58 1018.4
20260902132516 81 183 0.0 0.0 0.00 0.00 0.00 60 1018.4
20260902132013 80 182 0.0 0.0 0.00 0.00 0.00 60 1018.4
20260902131511 79 183 0.0 0.0 0.00 0.00 0.00 61 1018.4
20260902131010 78 183 0.0 0.0 0.00 0.00 0.00 62 1018.4
20260902130510 77 183 0.0 0.0 0.00 0.00 0.00 63 1018.4
20260902130024 77 183 0.0 0.0 0.00 0.00 0.00 65 1018.3
20260902125507 76 182 0.0 0.0 0.00 0.00 0.00 67 1018.3
20260902125006 75 182 0.0 0.0 0.00 0.00 0.00 69 1018.3
20260902124506 74 187 0.0 1.0 0.00 0.00 0.00 70 1018.2
20260902124005 74 187 0.0 1.0 0.00 0.00 0.00 71 1018.2
20260902123504 73 190 0.0 0.0 0.00 0.00 0.00 71 1018.2
20260902123015 73 190 0.0 0.0 0.00 0.00 0.00 71 1018.2
20260902122504 72 190 0.0 0.0 0.00 0.00 0.00 71 1018.1
20260902122005 72 190 0.0 0.0 0.00 0.00 0.00 72 1018.1
20260902121502 72 190 0.0 0.0 0.00 0.00 0.00 71 1018.0
20260902121002 71 190 0.0 0.0 0.00 0.00 0.00 71 1017.9
20260902120502 71 190 0.0 0.0 0.00 0.00 0.00 71 1018.0
20260902120001 71 190 0.0 0.0 0.00 0.00 0.00 71 1017.9
20260902115604 71 190 0.0 0.0 0.00 0.00 0.00 71 1017.8
20260902115100 70 190 0.0 0.0 0.00 0.00 0.00 70 1017.8
20260902114618 70 190 0.0 0.0 0.00 0.00 0.00 70 1017.7
20260902114100 70 190 0.0 0.0 0.00 0.00 0.00 69 1017.6
20260902113557 70 190 0.0 0.0 0.00 0.00 0.00 69 1017.6
20260902113057 70 190 0.0 0.0 0.00 0.00 0.00 69 1017.5
20260902112557 70 190 0.0 0.0 0.00 0.00 0.00 69 1017.5
20260902112056 70 190 0.0 0.0 0.00 0.00 0.00 69 1017.5
20260902111554 70 190 0.0 0.0 0.00 0.00 0.00 69 1017.5
20260902111054 71 190 0.0 0.0 0.00 0.00 0.00 69 1017.5
20260902110554 71 190 0.0 0.0 0.00 0.00 0.00 69 1017.5
20260902105553 71 190 0.0 0.0 0.00 0.00 0.00 68 1017.4
20260902105053 71 190 0.0 0.0 0.00 0.00 0.00 68 1017.4
20260902104557 71 190 0.0 0.0 0.00 0.00 0.00 68 1017.4
20260902104052 71 190 0.0 0.0 0.00 0.00 0.00 68 1017.3
20260902103551 71 190 0.0 0.0 0.00 0.00 0.00 68 1017.2
20260902103101 71 190 0.0 0.0 0.00 0.00 0.00 68 1017.1
20260902102551 71 190 0.0 0.0 0.00 0.00 0.00 68 1017.2
20260902102050 71 190 0.0 0.0 0.00 0.00 0.00 68 1017.0
20260902101550 71 190 0.0 0.0 0.00 0.00 0.00 68 1016.9
20260902101050 71 190 0.0 0.0 0.00 0.00 0.00 67 1017.0
20260902100548 71 190 0.0 0.0 0.00 0.00 0.00 67 1017.0
20260902100049 71 190 0.0 0.0 0.00 0.00 0.00 67 1017.0
20260902095547 71 190 0.0 0.0 0.00 0.00 0.00 67 1016.9
20260902095046 71 190 0.0 0.0 0.00 0.00 0.00 67 1016.8
20260902094547 71 190 0.0 0.0 0.00 0.00 0.00 67 1016.8
20260902094046 71 190 0.0 0.0 0.00 0.00 0.00 67 1016.6
20260902093545 71 190 0.0 0.0 0.00 0.00 0.00 67 1016.7
20260902093045 72 190 0.0 0.0 0.00 0.00 0.00 67 1016.7
20260902092544 72 190 0.0 0.0 0.00 0.00 0.00 66 1016.6
20260902092044 72 190 0.0 0.0 0.00 0.00 0.00 66 1016.6
20260902091543 72 190 0.0 0.0 0.00 0.00 0.00 66 1016.7
20260902091042 72 190 0.0 0.0 0.00 0.00 0.00 66 1016.6
20260902090542 72 190 0.0 0.0 0.00 0.00 0.00 66 1016.6
20260902090042 72 190 0.0 0.0 0.00 0.00 0.00 66 1016.5
20260902085543 72 190 0.0 0.0 0.00 0.00 0.00 66 1016.5
20260902085042 72 190 0.0 0.0 0.00 0.00 0.00 66 1016.6
20260902084541 72 190 0.0 0.0 0.00 0.00 0.00 66 1016.5
20260902084042 72 190 0.0 0.0 0.00 0.00 0.00 66 1016.4
20260902083541 72 190 0.0 0.0 0.00 0.00 0.00 66 1016.5
20260902083043 72 190 0.0 0.0 0.00 0.00 0.00 66 1016.5
20260902082541 72 190 0.0 0.0 0.00 0.00 0.00 66 1016.5
20260902082041 72 190 0.0 0.0 0.00 0.00 0.00 66 1016.4
20260902081545 72 190 0.0 0.0 0.00 0.00 0.00 66 1016.4
20260902081039 72 190 0.0 0.0 0.00 0.00 0.00 65 1016.4
20260902080539 72 190 0.0 0.0 0.00 0.00 0.00 65 1016.4
20260902080048 72 190 0.0 0.0 0.00 0.00 0.00 65 1016.4
20260902075537 73 190 0.0 0.0 0.00 0.00 0.00 65 1016.4
20260902075036 73 190 0.0 0.0 0.00 0.00 0.00 65 1016.3
20260902074537 73 190 0.0 0.0 0.00 0.00 0.00 65 1016.3
20260902074036 73 190 0.0 0.0 0.00 0.00 0.00 64 1016.3
20260902073535 73 190 0.0 0.0 0.00 0.00 0.00 64 1016.3
20260902073034 73 190 0.0 0.0 0.00 0.00 0.00 64 1016.3
20260902072536 74 190 0.0 0.0 0.00 0.00 0.00 64 1016.2
20260902072033 74 190 0.0 0.0 0.00 0.00 0.00 64 1016.2
20260902071539 74 190 0.0 0.0 0.00 0.00 0.00 64 1016.2
20260902071033 74 190 0.0 0.0 0.00 0.00 0.00 64 1016.3
20260902070533 74 190 0.0 0.0 0.00 0.00 0.00 64 1016.3
20260902070033 74 194 0.0 0.0 0.00 0.00 0.00 65 1016.3
20260902065533 74 194 0.0 0.0 0.00 0.00 0.00 65 1016.3
20260902065033 74 194 0.0 0.0 0.00 0.00 0.00 65 1016.3
20260902064532 74 194 0.0 0.0 0.00 0.00 0.00 65 1016.3
20260902064032 74 194 0.0 0.0 0.00 0.00 0.00 64 1016.2
20260902063536 74 194 0.0 0.0 0.00 0.00 0.00 64 1016.2
20260902063032 74 194 0.0 0.0 0.00 0.00 0.00 64 1016.2
20260902062532 74 194 0.0 0.0 0.00 0.00 0.00 64 1016.3
20260902062029 74 194 0.0 0.0 0.00 0.00 0.00 64 1016.2
20260902061529 75 194 0.0 0.0 0.00 0.00 0.00 64 1016.2
20260902061033 75 194 0.0 0.0 0.00 0.00 0.00 64 1016.2
20260902060530 75 194 0.0 0.0 0.00 0.00 0.00 64 1016.2
20260902060027 75 194 0.0 0.0 0.00 0.00 0.00 64 1016.3
20260902055528 75 194 0.0 0.0 0.00 0.00 0.00 64 1016.3
20260902055028 75 194 0.0 0.0 0.00 0.00 0.00 64 1016.3
20260902054531 75 194 0.0 0.0 0.00 0.00 0.00 64 1016.4
20260902054028 75 194 0.0 0.0 0.00 0.00 0.00 64 1016.4
20260902053528 75 194 0.0 0.0 0.00 0.00 0.00 64 1016.4
20260902053027 75 194 0.0 0.0 0.00 0.00 0.00 64 1016.3
20260902052530 75 194 0.0 0.0 0.00 0.00 0.00 64 1016.3
20260902052025 75 194 0.0 0.0 0.00 0.00 0.00 64 1016.3
20260902051527 75 196 0.0 0.0 0.00 0.00 0.00 64 1016.3
20260902051025 75 196 0.0 0.0 0.00 0.00 0.00 64 1016.2
20260902050526 75 196 0.0 0.0 0.00 0.00 0.00 64 1016.2
20260902050025 75 196 0.0 0.0 0.00 0.00 0.00 64 1016.3
20260902045524 76 199 0.0 0.0 0.00 0.00 0.00 64 1016.3
20260902045023 75 201 0.0 1.0 0.00 0.00 0.00 64 1016.3
20260902044523 76 201 0.0 1.0 0.00 0.00 0.00 64 1016.3
20260902044024 76 201 0.0 0.0 0.00 0.00 0.00 64 1016.3
20260902043523 76 201 0.0 0.0 0.00 0.00 0.00 64 1016.2
20260902043023 76 207 0.0 0.0 0.00 0.00 0.00 64 1016.3
20260902042522 76 207 0.0 0.0 0.00 0.00 0.00 64 1016.3
20260902042024 76 207 0.0 0.0 0.00 0.00 0.00 64 1016.3
20260902041521 76 207 0.0 0.0 0.00 0.00 0.00 63 1016.3
20260902041020 76 208 0.0 0.0 0.00 0.00 0.00 63 1016.3
20260902040520 76 209 0.0 0.0 0.00 0.00 0.00 63 1016.3
20260902040021 76 209 0.0 0.0 0.00 0.00 0.00 63 1016.2
20260902035518 76 209 0.0 0.0 0.00 0.00 0.00 63 1016.2
20260902035018 76 209 0.0 0.0 0.00 0.00 0.00 62 1016.3
20260902034519 76 211 0.0 0.0 0.00 0.00 0.00 62 1016.3
20260902034018 77 211 0.0 0.0 0.00 0.00 0.00 62 1016.3
20260902033518 77 211 0.0 0.0 0.00 0.00 0.00 62 1016.3
20260902033018 77 211 0.0 0.0 0.00 0.00 0.00 62 1016.3
20260902032520 77 213 0.0 0.0 0.00 0.00 0.00 63 1016.3
20260902032020 76 213 0.0 0.0 0.00 0.00 0.00 63 1016.4
20260902031517 76 213 0.0 0.0 0.00 0.00 0.00 63 1016.4
20260902031017 76 213 0.0 0.0 0.00 0.00 0.00 63 1016.4
20260902030517 76 213 0.0 0.0 0.00 0.00 0.00 63 1016.4
20260902030019 76 221 0.0 0.0 0.00 0.00 0.00 63 1016.4
20260902025519 76 223 0.0 0.0 0.00 0.00 0.00 63 1016.5
20260902025017 77 223 0.0 0.0 0.00 0.00 0.00 63 1016.5
20260902024518 77 223 0.0 0.0 0.00 0.00 0.00 62 1016.5
20260902024016 77 223 0.0 0.0 0.00 0.00 0.00 62 1016.4
20260902023516 77 223 0.0 0.0 0.00 0.00 0.00 63 1016.4
20260902023034 77 223 0.0 0.0 0.00 0.00 0.00 62 1016.4
20260902022516 78 248 0.0 0.0 0.00 0.00 0.00 62 1016.4
20260902022019 78 248 0.0 0.0 0.00 0.00 0.00 62 1016.3
20260902021527 78 248 0.0 0.0 0.00 0.00 0.00 62 1016.3
20260902021019 78 248 0.0 0.0 0.00 0.00 0.00 62 1016.3
20260902020514 78 248 0.0 0.0 0.00 0.00 0.00 62 1016.3
20260902020016 78 248 0.0 0.0 0.00 0.00 0.00 63 1016.2
20260902015516 78 248 0.0 0.0 0.00 0.00 0.00 63 1016.2
20260902015015 79 248 0.0 0.0 0.00 0.00 0.00 62 1016.2
20260902014515 79 248 0.0 0.0 0.00 0.00 0.00 62 1016.2
20260902014014 79 248 0.0 0.0 0.00 0.00 0.00 62 1016.3
20260902013514 79 248 0.0 0.0 0.00 0.00 0.00 62 1016.2
20260902013017 80 248 0.0 0.0 0.00 0.00 0.00 62 1016.2
20260902012513 80 248 0.0 0.0 0.00 0.00 0.00 61 1016.2
20260902012017 80 248 0.0 0.0 0.00 0.00 0.00 60 1016.0
20260902011513 80 248 0.0 0.0 0.00 0.00 0.00 60 1016.0
20260902011014 81 248 0.0 0.0 0.00 0.00 0.00 60 1015.8
20260902010513 81 248 0.0 0.0 0.00 0.00 0.00 59 1015.8
20260902010013 82 248 0.0 0.0 0.00 0.00 0.00 58 1015.7
20260902005515 83 249 0.0 0.0 0.00 0.00 0.00 57 1015.7
20260902005013 83 249 0.0 0.0 0.00 0.00 0.00 57 1015.6
20260902004515 83 249 0.0 0.0 0.00 0.00 0.00 57 1015.6
20260902004013 84 249 0.0 0.0 0.00 0.00 0.00 56 1015.6
20260902003512 84 249 0.0 0.0 0.00 0.00 0.00 56 1015.6
20260902003012 85 249 0.0 0.0 0.00 0.00 0.00 55 1015.6
20260902002512 86 249 0.0 0.0 0.00 0.00 0.00 54 1015.6
20260902002017 86 249 0.0 0.0 0.00 0.00 0.00 54 1015.6
20260902001511 87 249 0.0 0.0 0.00 0.00 0.00 51 1015.6
20260902001010 88 249 0.0 0.0 0.00 0.00 0.00 50 1015.7
20260902000510 88 249 0.0 0.0 0.00 0.00 0.00 50 1015.7
20260902000012 88 249 0.0 0.0 0.00 0.00 0.00 50 1015.8
20260901235510 88 249 0.0 0.0 0.00 0.00 0.00 51 1015.8
20260901235009 89 249 0.0 0.0 0.00 0.00 0.00 50 1015.8
20260901234510 89 249 0.0 0.0 0.00 0.00 0.00 50 1015.8
20260901234010 89 249 0.0 0.0 0.00 0.00 0.00 49 1015.7
20260901233509 90 249 0.0 0.0 0.00 0.00 0.00 48 1015.8
20260901233010 91 249 0.0 0.0 0.00 0.00 0.00 46 1015.8
20260901232510 93 249 0.0 0.0 0.00 0.00 0.00 44 1015.8
20260901232009 94 249 0.0 0.0 0.00 0.00 0.00 41 1015.8
20260901231510 95 249 0.0 0.0 0.00 0.00 0.00 38 1015.8
20260901231009 94 249 0.0 0.0 0.00 0.00 0.00 39 1015.7
20260901230508 95 249 0.0 0.0 0.00 0.00 0.00 38 1015.8
20260901230008 95 249 0.0 0.0 0.00 0.00 0.00 37 1015.8
20260901225508 94 249 0.0 0.0 0.00 0.00 0.00 38 1015.8
20260901225009 94 249 0.0 0.0 0.00 0.00 0.00 37 1015.8
20260901224508 93 249 0.0 0.0 0.00 0.00 0.00 38 1015.9
20260901224007 93 249 0.0 0.0 0.00 0.00 0.00 38 1016.0
20260901223508 93 271 0.0 0.0 0.00 0.00 0.00 38 1015.8
20260901223015 93 240 0.0 0.0 0.00 0.00 0.00 38 1015.9
20260901222508 94 238 0.0 0.0 0.00 0.00 0.00 38 1015.9
20260901222009 95 242 0.0 0.0 0.00 0.00 0.00 37 1015.8
20260901221507 94 243 0.0 0.0 0.00 0.00 0.00 39 1015.8
20260901221007 93 243 0.0 1.0 0.00 0.00 0.00 38 1015.8
20260901220506 94 220 0.0 1.0 0.00 0.00 0.00 37 1015.8
20260901220007 95 252 0.0 0.0 0.00 0.00 0.00 39 1015.7
20260901215507 93 252 0.0 0.0 0.00 0.00 0.00 38 1015.7
20260901215006 93 263 0.0 0.0 0.00 0.00 0.00 39 1015.7
20260901214506 94 225 0.0 1.0 0.00 0.00 0.00 37 1015.7
20260901214010 94 184 0.0 1.0 0.00 0.00 0.00 37 1015.7
20260901213505 94 232 0.0 0.0 0.00 0.00 0.00 38 1015.8
20260901213011 94 284 0.0 0.0 0.00 0.00 0.00 37 1015.7
20260901212505 94 240 0.0 0.0 0.00 0.00 0.00 38 1015.8
20260901212006 94 260 0.0 0.0 0.00 0.00 0.00 37 1015.7
20260901211505 94 281 0.0 0.0 0.00 0.00 0.00 39 1015.7
20260901211003 94 284 0.0 0.0 0.00 0.00 0.00 38 1015.8
20260901210505 94 207 0.0 0.0 0.00 0.00 0.00 36 1015.8
20260901210004 95 236 0.0 0.0 0.00 0.00 0.00 36 1015.9
20260901205505 95 286 0.0 0.0 0.00 0.00 0.00 38 1015.9
20260901205001 95 263 0.0 0.0 0.00 0.00 0.00 37 1016.0
20260901204501 95 215 0.0 0.0 0.00 0.00 0.00 37 1016.1
20260901204101 95 227 0.0 1.0 0.00 0.00 0.00 36 1016.1
20260901203601 94 293 0.0 1.0 0.00 0.00 0.00 37 1016.2
20260901203109 94 335 0.0 0.0 0.00 0.00 0.00 37 1016.1
20260901202558 94 289 0.0 0.0 0.00 0.00 0.00 37 1016.2
20260901202058 93 220 0.0 0.0 0.00 0.00 0.00 37 1016.3
20260901201558 94 269 0.0 0.0 0.00 0.00 0.00 37 1016.4
20260901201057 94 255 0.0 1.0 0.00 0.00 0.00 37 1016.4
20260901200556 94 254 0.0 1.0 0.00 0.00 0.00 37 1016.5
20260901200057 94 269 0.0 0.0 0.00 0.00 0.00 38 1016.4
20260901195558 93 249 0.0 0.0 0.00 0.00 0.00 37 1016.5
20260901195056 94 283 0.0 0.0 0.00 0.00 0.00 36 1016.7
20260901194555 95 197 0.0 0.0 0.00 0.00 0.00 37 1016.7
20260901194054 95 197 0.0 1.0 0.00 0.00 0.00 35 1016.6
20260901193553 94 192 0.0 1.0 0.00 0.00 0.00 37 1016.7
20260901193106 93 290 0.0 0.0 0.00 0.00 0.00 38 1016.8
20260901192553 93 242 0.0 0.0 0.00 0.00 0.00 38 1016.8
20260901192058 93 213 0.0 1.0 0.00 0.00 0.00 38 1016.9
20260901191552 93 250 0.0 1.0 0.00 0.00 0.00 39 1016.9
20260901191056 93 289 0.0 0.0 0.00 0.00 0.00 40 1017.0
20260901190552 93 274 0.0 0.0 0.00 0.00 0.00 39 1017.0
20260901190054 92 269 0.0 0.0 0.00 0.00 0.00 39 1017.1
20260901185552 92 241 0.0 0.0 0.00 0.00 0.00 38 1017.1
20260901185051 93 288 0.0 0.0 0.00 0.00 0.00 36 1017.2
20260901184551 93 279 0.0 0.0 0.00 0.00 0.00 37 1017.3
20260901184050 94 281 0.0 0.0 0.00 0.00 0.00 39 1017.3
20260901183551 93 281 0.0 0.0 0.00 0.00 0.00 38 1017.4
20260901183058 92 293 0.0 0.0 0.00 0.00 0.00 40 1017.4
20260901182553 93 265 0.0 1.0 0.00 0.00 0.00 40 1017.5
20260901182049 93 233 0.0 1.0 0.00 0.00 0.00 39 1017.5
20260901181550 91 248 0.0 0.0 0.00 0.00 0.00 40 1017.5
20260901181051 91 273 0.0 0.0 0.00 0.00 0.00 40 1017.6
20260901180547 92 279 0.0 0.0 0.00 0.00 0.00 41 1017.6
20260901180048 91 281 0.0 0.0 0.00 0.00 0.00 41 1017.6
20260901175547 91 267 0.0 0.0 0.00 0.00 0.00 41 1017.7
20260901175047 92 279 0.0 0.0 0.00 0.00 0.00 41 1017.7
20260901174547 91 232 0.0 0.0 0.00 0.00 0.00 41 1017.7
20260901174047 92 248 0.0 1.0 0.00 0.00 0.00 41 1017.8
20260901173547 91 288 0.0 1.0 0.00 0.00 0.00 41 1017.9
20260901173055 91 270 0.0 0.0 0.00 0.00 0.00 40 1017.8
20260901172546 92 247 0.0 0.0 0.00 0.00 0.00 42 1017.8
20260901172045 91 276 0.0 0.0 0.00 0.00 0.00 42 1017.9
20260901171545 91 270 0.0 0.0 0.00 0.00 0.00 42 1018.0
20260901171043 91 240 0.0 0.0 0.00 0.00 0.00 44 1017.9
20260901170544 91 243 0.0 0.0 0.00 0.00 0.00 44 1017.9
20260901170057 91 250 0.0 0.0 0.00 0.00 0.00 46 1017.9
20260901165543 91 234 0.0 0.0 0.00 0.00 0.00 44 1018.1
20260901165042 91 296 0.0 0.0 0.00 0.00 0.00 45 1018.1
20260901164542 91 275 0.0 0.0 0.00 0.00 0.00 45 1018.2
20260901164041 90 248 0.0 0.0 0.00 0.00 0.00 46 1018.2
20260901163541 90 238 0.0 0.0 0.00 0.00 0.00 46 1018.3
20260901163041 91 243 0.0 0.0 0.00 0.00 0.00 46 1018.3
20260901162541 90 273 0.0 0.0 0.00 0.00 0.00 47 1018.3
20260901162038 90 241 0.0 0.0 0.00 0.00 0.00 48 1018.4
20260901161539 89 294 0.0 0.0 0.00 0.00 0.00 48 1018.4
20260901161038 89 262 0.0 0.0 0.00 0.00 0.00 48 1018.4
20260901160537 89 243 0.0 0.0 0.00 0.00 0.00 48 1018.5
20260901160038 89 265 0.0 0.0 0.00 0.00 0.00 47 1018.4
20260901155537 89 254 0.0 0.0 0.00 0.00 0.00 49 1018.4
20260901155038 88 246 0.0 1.0 0.00 0.00 0.00 48 1018.5
20260901154538 89 236 0.0 1.0 0.00 0.00 0.00 49 1018.6
20260901154037 88 239 0.0 0.0 0.00 0.00 0.00 49 1018.6
20260901153536 88 188 0.0 0.0 0.00 0.00 0.00 50 1018.6
20260901153036 88 242 0.0 0.0 0.00 0.00 0.00 51 1018.6
20260901152531 88 234 0.0 0.0 0.00 0.00 0.00 51 1018.5
20260901152030 87 258 0.0 0.0 0.00 0.00 0.00 52 1018.5
20260901151530 87 252 0.0 0.0 0.00 0.00 0.00 51 1018.5
20260901151030 87 257 0.0 1.0 0.00 0.00 0.00 52 1018.5
20260901150528 86 210 0.0 1.0 0.00 0.00 0.00 53 1018.5
20260901150031 86 226 0.0 0.0 0.00 0.00 0.00 53 1018.6
20260901145527 86 226 0.0 0.0 0.00 0.00 0.00 53 1018.7
20260901145026 85 211 0.0 0.0 0.00 0.00 0.00 53 1018.8
20260901144526 85 210 0.0 0.0 0.00 0.00 0.00 53 1018.8
20260901144026 85 219 0.0 0.0 0.00 0.00 0.00 53 1018.7